Weather History for KMDZ - August, 2013

Change the Weather History Date:

Saturday, August 31, 2013

  Actual Average Record
Temperature  
Mean Temperature 66 °F -  
Max Temperature 79 °F 74 °F - (-1)
Min Temperature 53 °F 51 °F - (-1)
Growing Degree Days 16 (Base 50)    
Moisture  
Dew Point 60 °F    
Average Humidity 83    
Maximum Humidity 99    
Minimum Humidity 58    
Precipitation  
Precipitation 0.00 in - - ()
Sea Level Pressure  
Sea Level Pressure 29.89 in    
Wind  
Wind Speed 3 mph (SE)    
Max Wind Speed 8 mph    
Max Gust Speed -    
Visibility 9 miles    
Events Fog    
Averages and records for this station are not official NWS values.
T = Trace of Precipitation, MM = Missing Value Source: NWS Daily Summary

Daily Weather History Graph

Daily Weather History Graph

Search for Another Location

Airport or City:

Trip Planner

Search our weather history database for the weather conditions in past years. The results will help you decide how hot, cold, wet, or windy it might be!

Date:

Astronomy

Aug. 31, 2013 Rise Set
Actual Time 6:22 AM CDT 7:39 PM CDT
Civil Twilight 5:51 AM CDT 8:10 PM CDT
Nautical Twilight 5:15 AM CDT 8:46 PM CDT
Astronomical Twilight 4:36 AM CDT 9:25 PM CDT
Moon 1:43 AM CDT (8/31) 4:45 PM CDT (8/31)
Length of Visible Light 14h 18m
Length of Day
13h 17m
Waning Crescent, 21% of the Moon is Illuminated
Aug 31
Waning Crescent
Sep 5
New
Sep 12
First Quarter
Sep 19
Full
Sep 26
Last Quarter

Hourly Weather History & Observations

Time (CDT) Temp. Dew Point Humidity Pressure Visibility Wind Dir Wind Speed Gust Speed Precip Events Conditions
12:15 AM 60.1 °F 58.6 °F 95% 29.93 in 10.0 mi East 4.6 mph - N/A   Clear
12:35 AM 58.6 °F 57.6 °F 96% 29.94 in 10.0 mi ENE 4.6 mph - N/A   Clear
12:55 AM 58.6 °F 57.9 °F 97% 29.94 in 10.0 mi Calm Calm - N/A   Clear
1:15 AM 58.3 °F 57.6 °F 97% 29.94 in 10.0 mi Calm Calm - N/A   Clear
1:35 AM 57.6 °F 56.8 °F 97% 29.93 in 10.0 mi East 4.6 mph - N/A   Clear
1:55 AM 57.6 °F 57.0 °F 98% 29.93 in 10.0 mi Calm Calm - N/A   Clear
2:15 AM 56.5 °F 55.9 °F 98% 29.92 in 10.0 mi ENE 3.5 mph - N/A   Clear
2:35 AM 57.4 °F 56.5 °F 97% 29.93 in 10.0 mi East 5.8 mph - N/A   Clear
2:55 AM 55.9 °F 55.0 °F 97% 29.91 in 10.0 mi ENE 5.8 mph - N/A   Clear
3:15 AM 55.9 °F 55.4 °F 98% 29.92 in 10.0 mi East 4.6 mph - N/A   Clear
3:35 AM 55.6 °F 55.2 °F 99% 29.92 in 10.0 mi East 3.5 mph - N/A   Clear
3:55 AM 55.4 °F 54.9 °F 98% 29.93 in 7.0 mi ENE 3.5 mph - N/A   Clear
4:15 AM 54.9 °F 54.5 °F 99% 29.93 in 2.0 mi Calm Calm - N/A   Clear
4:35 AM 54.1 °F 53.8 °F 99% 29.94 in 0.5 mi Calm Calm - N/A Fog Fog
4:55 AM 54.5 °F 54.3 °F 99% 29.94 in 5.0 mi Calm Calm - N/A   Clear
5:15 AM 53.2 °F 53.1 °F 99% 29.93 in 0.5 mi Calm Calm - N/A Fog Fog
5:35 AM 54.0 °F 53.6 °F 99% 29.93 in 0.5 mi Calm Calm - N/A Fog Fog
5:55 AM 53.8 °F 53.6 °F 99% 29.93 in 0.2 mi ENE 3.5 mph - N/A Fog Fog
6:15 AM 53.2 °F 53.1 °F 99% 29.92 in 0.5 mi ESE 3.5 mph - N/A Fog Fog
6:35 AM 53.6 °F 53.4 °F 99% 29.92 in 5.0 mi ENE 3.5 mph - N/A   Clear
6:55 AM 53.1 °F 52.9 °F 99% 29.92 in 1.2 mi ENE 4.6 mph - N/A   Mist
7:15 AM 55.8 °F 55.6 °F 99% 29.92 in 7.0 mi North 4.6 mph - N/A   Clear
7:35 AM 57.2 °F 56.8 °F 99% 29.92 in 5.0 mi Calm Calm - N/A   Clear
7:55 AM 58.8 °F 58.3 °F 98% 29.91 in 7.0 mi East 3.5 mph - N/A   Clear
8:15 AM 60.8 °F 59.4 °F 95% 29.92 in 10.0 mi East 4.6 mph - N/A   Clear
8:35 AM 62.1 °F 60.1 °F 93% 29.92 in 10.0 mi East 4.6 mph - N/A   Clear
8:55 AM 63.1 °F 60.1 °F 90% 29.92 in 10.0 mi ESE 5.8 mph - N/A   Clear
9:15 AM 64.6 °F 60.6 °F 87% 29.92 in 10.0 mi East 4.6 mph - N/A   Clear
9:35 AM 64.2 °F 60.8 °F 89% 29.92 in 10.0 mi South 4.6 mph - N/A   Scattered Clouds
9:55 AM 65.7 °F 61.2 °F 85% 29.93 in 10.0 mi SSE 3.5 mph - N/A   Scattered Clouds
10:15 AM 66.6 °F 61.2 °F 83% 29.93 in 10.0 mi SE 3.5 mph - N/A   Scattered Clouds
10:35 AM 68.2 °F 61.9 °F 80% 29.92 in 10.0 mi South 5.8 mph - N/A   Scattered Clouds
10:55 AM 69.4 °F 62.1 °F 77% 29.92 in 10.0 mi SSE 3.5 mph - N/A   Clear
11:15 AM 69.8 °F 61.9 °F 76% 29.91 in 10.0 mi Calm Calm - N/A   Clear
11:35 AM 70.9 °F 62.4 °F 75% 29.90 in 10.0 mi South 4.6 mph - N/A   Clear
11:55 AM 71.6 °F 61.7 °F 71% 29.90 in 10.0 mi Calm Calm - N/A   Clear
12:15 PM 72.9 °F 62.2 °F 69% 29.90 in 10.0 mi Calm Calm - N/A   Clear
12:35 PM 73.6 °F 62.4 °F 68% 29.89 in 10.0 mi South 3.5 mph - N/A   Clear
12:55 PM 74.3 °F 61.7 °F 65% 29.89 in 10.0 mi South 4.6 mph - N/A   Clear
1:35 PM 75.9 °F 63.3 °F 65% 29.89 in 10.0 mi South 3.5 mph - N/A   Clear
1:55 PM 76.5 °F 63.0 °F 63% 29.88 in 10.0 mi South 5.8 mph - N/A   Clear
2:15 PM 76.5 °F 62.8 °F 62% 29.87 in 10.0 mi SSE 5.8 mph - N/A   Clear
2:35 PM 76.6 °F 63.5 °F 64% 29.88 in 10.0 mi Calm Calm - N/A   Clear
2:55 PM 77.5 °F 63.0 °F 61% 29.88 in 10.0 mi South 3.5 mph - N/A   Clear
3:15 PM 77.7 °F 63.3 °F 61% 29.87 in 10.0 mi SSE 5.8 mph - N/A   Clear
3:35 PM 78.1 °F 62.6 °F 59% 29.87 in 10.0 mi SSE 3.5 mph - N/A   Clear
3:55 PM 78.4 °F 63.1 °F 59% 29.86 in 10.0 mi SE 3.5 mph - N/A   Clear
4:15 PM 78.8 °F 63.0 °F 58% 29.85 in 10.0 mi SSE 4.6 mph - N/A   Clear
4:35 PM 78.6 °F 63.0 °F 59% 29.85 in 10.0 mi South 8.1 mph - N/A   Clear
4:55 PM 78.4 °F 63.7 °F 60% 29.84 in 10.0 mi SE 5.8 mph - N/A   Clear
5:15 PM 78.1 °F 63.7 °F 61% 29.83 in 10.0 mi SE 6.9 mph - N/A   Clear
5:35 PM 77.5 °F 63.0 °F 61% 29.83 in 10.0 mi SE 6.9 mph - N/A   Clear
5:55 PM 77.0 °F 63.5 °F 63% 29.82 in 10.0 mi SE 4.6 mph - N/A   Clear
6:15 PM 76.1 °F 63.5 °F 65% 29.81 in 10.0 mi SE 4.6 mph - N/A   Clear
6:35 PM 75.0 °F 63.3 °F 67% 29.80 in 10.0 mi SE 5.8 mph - N/A   Clear
6:55 PM 73.4 °F 63.0 °F 70% 29.83 in 10.0 mi Calm Calm - N/A   Clear
7:15 PM 71.1 °F 63.1 °F 76% 29.85 in 10.0 mi SSE 3.5 mph - N/A   Clear
7:35 PM 69.1 °F 63.0 °F 81% 29.84 in 10.0 mi SSE 3.5 mph - N/A   Clear
7:55 PM 68.4 °F 62.2 °F 81% 29.84 in 10.0 mi SSE 3.5 mph - N/A   Clear
8:15 PM 67.8 °F 62.2 °F 82% 29.84 in 10.0 mi Calm Calm - N/A   Clear
8:35 PM 66.4 °F 61.7 °F 85% 29.85 in 10.0 mi SSE 3.5 mph - N/A   Clear
8:55 PM 66.2 °F 62.1 °F 86% 29.87 in 10.0 mi Calm Calm - N/A   Clear
9:15 PM 66.2 °F 61.7 °F 85% 29.86 in 10.0 mi SSE 3.5 mph - N/A   Clear
9:35 PM 64.9 °F 61.5 °F 89% 29.86 in 10.0 mi South 3.5 mph - N/A   Clear
9:55 PM 64.8 °F 61.3 °F 89% 29.86 in 10.0 mi Calm Calm - N/A   Clear
10:15 PM 66.7 °F 62.1 °F 85% 29.87 in 10.0 mi Calm Calm - N/A   Clear
10:35 PM 63.1 °F 61.3 °F 94% 29.86 in 10.0 mi Calm Calm - N/A   Scattered Clouds
10:55 PM 65.1 °F 61.7 °F 89% 29.84 in 10.0 mi SE 3.5 mph - N/A   Clear
11:15 PM 66.4 °F 62.1 °F 86% 29.83 in 10.0 mi SSE 5.8 mph - N/A   Clear
11:35 PM 66.6 °F 62.6 °F 87% 29.80 in 10.0 mi SE 4.6 mph - N/A   Clear
11:55 PM 66.7 °F 62.2 °F 85% 29.80 in 10.0 mi SSE 5.8 mph - N/A   Clear